Regional Weather Roundup
Issued by NWS Green Bay, WI

Home | Current Version | Previous Version | Graphics & Text | Print | Product List | Glossary Off
Versions: 1 2 3 4 5 6 7 8 9 10 11 12 13 14 15 16 17 18 19 20 21 22 23 24 25 26 27 28 29 30 31 32 33 34 35 36 37 38 39 40 41 42 43 44 45 46 47 48 49 50

000
ASUS43 KGRB 161010
RWRGRB

NORTH-CENTRAL AND NORTHEAST WISCONSIN REGIONAL WEATHER ROUNDUP
NATIONAL WEATHER SERVICE GREEN BAY WI
500 AM CDT WED APR 16 2014

WIZ005-009-010>012-018-019-161100-
NORTH CENTRAL WISCONSIN

CITY           SKY/WX    TMP DP  RH WIND       PRES   REMARKS
IRONWOOD       CLOUDY    21   1  42 SE8       30.11S
MANITOWISH WTR CLOUDY    16   5  63 CALM      30.13R
ARBOR VITAE    MOCLDY    17   6  61 SE3       30.14R
EAGLE RIVER    PTCLDY     9   4  83 CALM      30.14S
LAND O LAKES   MOCLDY     1  -3  84 CALM      30.15S
RHINELANDER    CLOUDY    12   8  84 CALM      30.15R
PHILLIPS       CLOUDY    22  12  65 CALM      30.12S
ANTIGO         MOCLDY    21  14  75 S6        30.16S
TOMAHAWK       CLOUDY    18  14  86 CALM      30.15R
MERRILL        CLOUDY    20  17  88 CALM      30.16S
$$

WIZ013-073-161100-
NORTHEAST WISCONSIN

CITY           SKY/WX    TMP DP  RH WIND       PRES   REMARKS
IRON MOUNTAIN  CLEAR      8   4  83 CALM      30.19R
MARINETTE      CLEAR     18  16  93 CALM      30.23S
OCONTO         CLEAR     17  15  93 CALM      30.24R
$$

WIZ017-030-035>037-045-161100-
CENTRAL WISCONSIN

CITY           SKY/WX    TMP DP  RH WIND       PRES   REMARKS
MEDFORD        CLOUDY    26  17  70 SE6       30.12S
WAUSAU         CLOUDY    23  16  74 E5        30.15S
MOSINEE        PTCLDY    23  18  80 SE6       30.17R
MARSHFIELD     LGT SNOW  28  17  63 SE12      30.14S
WISC RAPIDS    CLOUDY    27  18  69 SE8       30.18S
STEVENS POINT  CLOUDY    23  15  72 SE5       30.18R
WAUPACA        CLOUDY    27  21  80 CALM      30.21S
SHAWANO        CLEAR     25  20  81 CALM      30.23R
CLINTONVILLE   PTCLDY    23  19  86 CALM      30.21R
$$

WIZ038-039-048-051-161100-
FOX VALLEY

CITY           SKY/WX    TMP DP  RH WIND       PRES   REMARKS
NWS GREEN BAY  CLEAR     25  21  85 S3        30.24R
APPLETON       CLOUDY    27  21  80 SE3       30.22R
OSHKOSH        CLOUDY    28  20  71 SE5       30.21R
FOND DU LAC    CLOUDY    28  21  75 SE6       30.21S
$$

WIZ022-050-052-161100-
EAST CENTRAL WISCONSIN

CITY           SKY/WX    TMP DP  RH WIND       PRES   REMARKS
STURGEON BAY   CLEAR     25  16  68 S6        30.24R
MANITOWOC      CLEAR     22  18  85 CALM      30.25R
SHEBOYGAN      MOCLDY    25  22  88 CALM      30.24R
$$

LMZ563-521-522-541>543-161100-
LAKESHORE

STATION/POSITION TIME  TEMP    WIND        PRES    VSBY  WAVE
                       AIR SEA DIR/SP/G                  HT/PER
                 (UTC) (F)     (DEG/KT/KT) (MB)    (MI)  (FT/S)
SHEBOYGAN LKSHOR 1000   33     160/ 12/ 13 1025.2R
KEWAUNEE LKSHORE 1000   28     220/  3/  4 1024.6S
NORTHPORT PIER   1000   28     130/ 11/ 13 1024.4R
SISTER BAY LKSHO 1000   23        CALM       N/A
MENOMINEE LKSHOR 1000   20      10/  2/  3 1024.5S
$$



USA.gov is the U.S. government's official web portal to all federal, state and local government web resources and services.